Weather in Kuala Terengganu

Malaysia     5°19′32″N   103°08′28″E
temp.,
°C
wind,
m/s
gust,
m/s
humid.,
%
clouds,
%
prec.,
mm/h
press.,
hPa
HPBL,
m
23 april, fri
fri2323:00+27sw3379100 4.7 1011111
02:00+26w3483100 7.1 1010216
05:00+25wsw3382100 0.2 1009165
08:00+25sw338271 0.3 1010181
11:00+29ssw126794 0.0 1010408
14:00+29ene3366100 0.0 1008692
17:00+29ene3366100 0.0 1007541
20:00+28ese2371100 0.1 1009555
24 april, sat
sat2423:00+27s227899 3.2 101178
02:00+26sw2282100 4.9 1009152
05:00+26ssw2282100 0.0 1008173
08:00+26ssw238199 0.1 1009189
11:00+29se116580 0.0 1010422
14:00+29ene3267100 0.1 1008602
17:00+28ne3476100 1.8 1007332
20:00+25nw3491100 11.1 1010221
25 april, sun
sun2523:00+26w348799 1.1 1012269
02:00+25wsw3388100 1.3 1010206
05:00+25wsw2285100 0.1 1009181
08:00+26ssw2282100 0.1 1010195
11:00+29s2265100 0.0 1011436
14:00+29e336598 0.0 1009636
17:00+29e3466100 0.1 1008421
20:00+28ese346957 0.1 1009505
26 april, mon
mon2623:00+28wnw0171100 0.3 1011393
02:00+27wsw217825 0.4 1009203
05:00+26wsw22845 0.0 1009157
08:00+26ssw1182100 0.0 1010148
11:00+29se1171100 0.0 1011440
14:00+30ene3265100 0.6 1009691
17:00+30ene2263100 0.2 1008706
20:00+29se1167100 0.2 1010446
27 april, tue
tue2723:00+27ssw2377100 0.1 1011304
02:00+26sw2281100 0.3 1010149
05:00+26ssw228076 0.1 1009170
08:00+26sw227995 0.1 1011171
11:00+28sse1269100 0.1 1011393
14:00+29e327067 0.3 1009557
17:00+30e446899 0.2 1008629
20:00+28e337799 2.1 1009317